Location: Bannatyne
(13.0833°N, 59.5333°W)
Time: 14:16:09
(UTC+00:00)

Vanguard 2 Rocket - Pass Details

Date: 25 January 2020
Orbit: 554 x 3326 km, 32.9° (Epoch: 29 March)

Event Time Altitude Azimuth Distance (km) Brightness Sun altitude
Rises 07:18:14 0° 263° (W) 2,873 - -44.6°
Reaches altitude 10° 07:20:55 10° 278° (W) 1,853 - -44.0°
Maximum altitude 07:24:12 24° 334° (NNW) 1,163 - -43.2°
Drops below altitude 10° 07:27:35 10° 31° (NNE) 1,917 - -42.4°
Sets 07:30:26 0° 45° (NE) 3,003 - -41.7°
Exits shadow 07:30:37 -1° 46° (NE) 3,079 10.0 -41.7°
